Weather in Kotabaru

Indonesia     2°42′32″S   116°02′49″E
temp.,
°C
wind,
m/s
gust,
m/s
humid.,
%
clouds,
%
prec.,
mm/h
press.,
hPa
HPBL,
m
17 june, thu
thu1723:00+23w11919 0.0 101217
02:00+23w11935 0.0 101113
05:00+22wsw11955 0.0 101118
08:00+25sw118071 0.0 1012216
11:00+31sse125280 0.0 10121313
14:00+32ese224967 0.0 10081788
17:00+26s248633 0.8 1009109
20:00+24wsw11975 1.5 101212
18 june, fri
fri1823:00+23w119922 1.7 101323
02:00+22wsw119826 1.8 101124
05:00+22wsw1298100 0.1 101145
08:00+23w1198100 0.3 101340
11:00+27s127799 0.1 1013464
14:00+29sse226297 1.3 10101136
17:00+27s127381 0.4 1009441
20:00+24wsw019395 0.4 101212
19 june, sat
sat1923:00+23w119443 0.0 101217
02:00+23wsw119447 0.0 101116
05:00+22wsw119423 0.0 101113
08:00+26sw117836 0.0 1013197
11:00+31sse115417 0.0 10111246
14:00+30ese3259100 0.4 10081065
17:00+27ne1185100 1.9 100841
20:00+23nnw0098100 6.1 101114
20 june, sun
sun2023:00+23w1198100 2.3 101113
02:00+23w1198100 2.8 101021
05:00+22w119864 0.4 100918
08:00+24wsw129137 0.6 1011135
11:00+29s117095 2.1 1010814
14:00+28se118597 5.4 1008402
17:00+26sse1195100 6.5 100863
20:00+23sw2298100 12.1 101060
21 june, mon
mon2123:00+23wsw2599100 14.4 1011202
02:00+22sw13100100 28.4 1010129
05:00+22wsw1199100 4.5 101052
08:00+23wsw0198100 4.8 101154
11:00+23se0198100 0.6 1011114
14:00+24sse1192100 0.6 1009261
17:00+24sse119096 0.0 1008115
20:00+23sw1196100 0.4 101019